Torna al catalogo

GLOBALSTAR M049

AttivoComunicazioniMEO
NORAD 25771·PAYLOAD·🇺🇸 United States

Lanciato Jun 10, 1999 da Cape Canaveral Space Force Station

Loading…

Prossimi Passaggi (prossime 24 ore)

TLE

AggiornatoSource: Space-Track

Epoca: Sep 14, 2026, 23:12 UTC

1 25771U 99031B   26257.96727158 -.00000065  00000-0  86461-5 0  9993
2 25771  51.9841 243.3409 0002427  47.1638 312.9362 11.12132608168029

Traccia GLOBALSTAR M049 in tempo reale con AllMySat

Download on the App Store